This is the latest recevied weather packets stored in our database for station/object DO5DHA-11. If no packets are shown the sender has not sent any weather packets the latest 10 day(s).
| Time | Temp. | Humidity | Pressure | Rain* | Wind** | Luminosity | Snow |
|---|---|---|---|---|---|---|---|
| 1777807144 | 22.78° C | 38% | 1012.7 hPa | 0 mm | - | - | - |
| 1777806844 | 22.78° C | 38% | 1012.7 hPa | 0 mm | - | - | - |
| 1777806544 | 22.78° C | 37% | 1012.5 hPa | 0 mm | - | - | - |
| 1777806244 | 22.78° C | 37% | 1012.5 hPa | 0 mm | - | - | - |
| 1777805944 | 23.33° C | 37% | 1012.7 hPa | 0 mm | - | - | - |
| 1777805644 | 23.33° C | 36% | 1012.7 hPa | 0 mm | - | - | - |
| 1777805344 | 23.89° C | 36% | 1013 hPa | 0 mm | - | - | - |
| 1777805044 | 23.89° C | 34% | 1012.9 hPa | 0 mm | - | - | - |
| 1777804744 | 24.44° C | 35% | 1012.7 hPa | 0 mm | - | - | - |
| 1777804444 | 25° C | 35% | 1012.7 hPa | 0 mm | - | - | - |
| 1777804144 | 25° C | 35% | 1012.7 hPa | 0 mm | - | - | - |
| 1777803844 | 25° C | 35% | 1012.7 hPa | 0 mm | - | - | - |
| 1777803544 | 25° C | 33% | 1012.7 hPa | 0 mm | - | - | - |
| 1777803244 | 25° C | 35% | 1012.9 hPa | 0 mm | - | - | - |
| 1777802944 | 25° C | 33% | 1012.9 hPa | 0 mm | - | - | - |
| 1777802644 | 25° C | 35% | 1013 hPa | 0 mm | - | - | - |
| 1777802344 | 24.44° C | 35% | 1013 hPa | 0 mm | - | - | - |
| 1777802044 | 24.44° C | 34% | 1012.9 hPa | 0 mm | - | - | - |
| 1777801744 | 23.89° C | 34% | 1013.2 hPa | 0 mm | - | - | - |
| 1777801444 | 23.89° C | 34% | 1013.2 hPa | 0 mm | - | - | - |
| 1777801144 | 24.44° C | 34% | 1013.2 hPa | 0 mm | - | - | - |
| 1777800844 | 24.44° C | 34% | 1013.2 hPa | 0 mm | - | - | - |
| 1777800544 | 24.44° C | 35% | 1013.2 hPa | 0 mm | - | - | - |
| 1777800244 | 24.44° C | 36% | 1013.2 hPa | 0 mm | - | - | - |
| 1777799944 | 24.44° C | 36% | 1013.2 hPa | 0 mm | - | - | - |
* Rain latest hour (hover to see other rain measurements)
** Current wind speed in m/s (hover to see current wind gust speed)